Location: Unspecified
(0.0000°N, 0.0000°E)
Time: 04:02:27
(UTC+00:00)

ARIANE 1 DEB - Pass Details

Date: 16 February 2026
Orbit: 376 x 19604 km, 19.8° (Epoch: 20 January)

Event Time Altitude Azimuth Distance (km) Brightness Sun altitude
Rises 19:52:39 0° 291° (WNW) 22,785 ? -24.1°
Reaches altitude 10° 20:46:07 10° 290° (WNW) 15,032 ? -37.0°
Enters shadow 21:30:21 70° 253° (WSW) 2,353 ? -47.6°
